Date,TemperatureHighF,TemperatureAvgF,TemperatureLowF,DewpointHighF,DewpointAvgF,DewpointLowF,HumidityHigh,HumidityAvg,HumidityLow,PressureMaxIn,PressureMinIn,WindSpeedMaxMPH,WindSpeedAvgMPH,GustSpeedMaxMPH,PrecipitationSumIn
2013-4-1,68.9,56.9,48.8,55.9,50.4,45.9,96,80,59,30.11,29.99,11,2,14,0.01
2013-4-2,70.0,54.5,45.4,54.0,48.2,43.5,95,81,53,30.14,30.02,13,4,17,0.00
2013-4-3,75.4,56.6,48.5,55.5,49.3,46.6,94,79,43,30.08,29.93,12,4,17,0.00
2013-4-4,60.7,54.7,49.5,56.7,52.1,47.4,95,91,82,30.08,29.95,14,4,16,0.88
2013-4-5,66.0,57.5,53.0,54.8,51.1,48.3,95,81,55,30.14,30.06,12,3,15,0.01
2013-4-6,69.1,58.0,53.1,56.2,50.9,48.3,92,79,52,30.15,30.06,12,4,19,0.03
2013-4-7,65.9,56.1,50.0,58.3,48.6,42.0,94,77,53,30.12,29.77,19,5,26,0.03
2013-4-8,71.2,56.4,46.5,41.9,34.9,29.1,73,47,23,30.06,29.77,24,9,36,0.00
2013-4-9,81.8,62.7,45.2,42.7,37.8,30.3,79,46,17,30.12,30.00,17,4,20,0.00
2013-4-10,89.6,70.7,54.8,50.3,44.6,37.5,63,43,18,30.14,29.97,21,6,29,0.00
2013-4-11,79.9,63.6,51.9,45.7,42.1,36.2,70,48,23,30.00,29.79,15,4,26,0.00
2013-4-12,76.1,59.4,44.9,50.2,44.7,40.9,87,61,32,29.87,29.75,13,3,18,0.00
2013-4-13,76.9,60.3,45.1,47.0,39.6,33.9,88,51,28,29.85,29.73,22,7,31,0.00
2013-4-14,74.4,58.2,47.5,44.2,35.3,22.0,83,45,19,29.89,29.78,27,7,39,0.00
2013-4-15,61.8,52.4,45.4,43.0,33.3,27.7,83,51,29,29.96,29.81,35,8,38,0.00
2013-4-16,73.6,56.5,43.2,37.5,30.7,20.4,69,42,15,30.16,29.96,19,5,26,0.00
2013-4-17,76.7,61.1,46.5,37.7,30.1,15.5,71,37,10,30.24,30.12,11,3,19,0.00
2013-4-18,83.2,63.3,47.6,44.7,37.8,29.2,74,45,15,30.23,30.11,13,3,22,0.00
2013-4-19,83.0,63.7,45.6,51.0,44.6,40.0,87,54,23,30.19,30.00,28,5,32,0.00
2013-4-20,85.7,66.3,51.4,46.1,40.9,31.8,75,44,15,30.07,29.91,14,4,20,0.00
2013-4-21,89.7,68.6,49.2,51.2,44.1,34.1,84,48,16,29.98,29.86,11,3,16,0.00
2013-4-22,93.9,72.3,58.3,52.3,45.4,26.3,66,42,9,29.91,29.77,16,3,17,0.00
2013-4-23,89.2,69.0,47.1,46.3,28.6,5.8,88,32,6,29.86,29.79,17,6,25,0.00
2013-4-24,63.6,52.9,46.4,48.1,44.9,43.3,90,76,54,29.93,29.80,17,5,20,0.00
2013-4-25,67.2,55.8,49.3,48.6,45.5,43.6,84,70,50,30.09,29.93,16,4,19,0.00
2013-4-26,71.5,55.3,46.8,52.2,47.0,43.1,88,75,49,30.18,30.08,14,4,16,0.00
2013-4-27,76.2,57.7,47.7,52.6,47.8,43.9,93,73,38,30.18,30.01,14,4,16,0.00
2013-4-28,87.1,65.7,43.3,53.5,47.7,40.8,91,58,28,30.01,29.83,10,2,13,0.00
2013-4-29,94.7,74.7,59.6,50.4,45.3,42.0,59,38,18,29.84,29.69,21,4,31,0.00
2013-4-30,89.7,71.6,54.5,43.9,37.4,24.6,63,33,12,29.81,29.72,16,4,23,0.00